Flag for Germany Weather past 2 weeks in Ibbenbüren, North Rhine-Westphalia, Germany

Now
77 °F

Sunny.


Feels Like: 79 °F
Forecast: 52 / 76 °F
Wind: 14 mph from Southwest

Location: Muenster / Osnabrueck

Current Time: Aug 4, 2015 at 12:49:45 PM

Latest Report: Aug 4, 2015 at 12:20 PM


Visibility: 10 mi

Pressure: 29.89 "Hg

Humidity: 51%

Dew point: 57 °F

Location of IbbenbürenLocation

Historic Weather in Ibbenbüren — Graph

°F

Ibbenbüren temperature yesterday

Maximum temperature yesterday: 90 °F (at 4:20 PM)
Minimum temperature yesterday: 59 °F (at 3:50 AM)
Average temperature yesterday: 74 °F

Past Weeks' High & Low Weather Summary

 TemperatureHumidityPressure
High90 °F (Aug 3, 4:20 PM)100% (Jul 20, 10:20 PM)30.15 "Hg (Jul 20, 10:20 PM)
Low45 °F (Jul 31, 5:50 AM)26% (Aug 3, 5:20 PM)29.47 "Hg (Jul 25, 7:20 AM)
Average64 °F69%29.87 "Hg
* Reported Jul 20 11:20 AM — Aug 4 11:50 AM, Ibbenbüren, Weather by CustomWeather, © 2015

Note: Actual official high and low records may vary slightly from our data, if they occured in-between our weather recording intervals... More about our weather records

Advertising

Ibbenbüren weather history for previous 24 hours

 ConditionsComfort  
Time TempWeatherWind HumidityBarometerVisibility
11:50 AM
Tue, Aug 4
79 °FSunny.9 mph48%29.86 "Hg10 mi
11:20 AM79 °FPassing clouds.8 mph48%29.86 "HgN/A
10:50 AM79 °FSunny.2 mph51%29.83 "Hg10 mi
10:20 AM77 °FPassing clouds.3 mph54%29.83 "HgN/A
9:50 AM75 °FPassing clouds.5 mph61%29.86 "HgN/A
9:20 AM72 °FPartly sunny.2 mph65%29.86 "HgN/A
8:50 AM70 °FPartly sunny.5 mph69%29.86 "HgN/A
8:20 AM70 °FPartly sunny.7 mph69%29.86 "HgN/A
7:50 AM70 °FBroken clouds.5 mph64%29.83 "HgN/A
7:20 AM70 °FBroken clouds.7 mph60%29.83 "HgN/A
6:50 AM68 °FPassing clouds.5 mph64%29.83 "HgN/A
6:20 AM68 °FPassing clouds.6 mph64%29.83 "HgN/A
5:50 AM68 °FPassing clouds.7 mph64%29.83 "HgN/A
5:20 AM68 °FPassing clouds.6 mph64%29.83 "HgN/A
4:50 AM68 °FPassing clouds.5 mph69%29.83 "HgN/A
4:20 AM66 °FClear.2 mph73%29.86 "Hg10 mi
3:50 AM66 °FClear.2 mph73%29.86 "Hg10 mi
3:20 AM64 °FClear.2 mph83%29.86 "Hg10 mi
2:50 AM63 °FClear.2 mph88%29.89 "Hg10 mi
2:20 AM63 °FClear.1 mph83%29.89 "Hg10 mi
1:50 AM66 °FClear.1 mph73%29.89 "Hg10 mi
1:20 AM66 °FClear.3 mph73%29.92 "Hg10 mi
12:50 AM72 °FPassing clouds.3 mph61%29.89 "HgN/A
12:20 AM72 °FClear.2 mph61%29.92 "Hg10 mi
11:20 PM
Mon, Aug 3
66 °FClear.1 mph78%29.92 "Hg10 mi
10:50 PM70 °FClear.2 mph69%29.92 "Hg10 mi
10:20 PM73 °FPassing clouds.3 mph57%29.92 "HgN/A
9:50 PM73 °FSunny.2 mph61%29.92 "Hg10 mi
9:20 PM77 °FPassing clouds.3 mph51%29.92 "HgN/A
8:50 PM82 °FPassing clouds.3 mph40%29.92 "HgN/A
8:20 PM82 °FPassing clouds.5 mph40%29.92 "HgN/A
7:50 PM84 °FSunny.5 mph35%29.92 "Hg10 mi
7:20 PM88 °FPassing clouds.7 mph31%29.92 "HgN/A
6:50 PM88 °FPassing clouds.10 mph29%29.92 "HgN/A
6:20 PM88 °FPassing clouds.9 mph27%29.92 "HgN/A
5:50 PM90 °FPassing clouds.10 mph26%29.92 "HgN/A
5:20 PM90 °FPassing clouds.10 mph26%29.92 "HgN/A
4:50 PM90 °FPassing clouds.12 mph27%29.95 "HgN/A
4:20 PM90 °FPassing clouds.10 mph27%29.95 "HgN/A
3:50 PM88 °FPassing clouds.12 mph27%29.95 "HgN/A
3:20 PM88 °FClear.14 mph27%29.95 "HgN/A
2:20 PM86 °FPassing clouds.12 mph33%29.95 "HgN/A
1:50 PM88 °FPassing clouds.14 mph29%29.95 "HgN/A
1:20 PM86 °FPassing clouds.13 mph33%29.98 "HgN/A
12:50 PM86 °FPassing clouds.7 mph35%29.98 "HgN/A
12:20 PM84 °FPassing clouds.8 mph37%29.98 "HgN/A
Weather by CustomWeather, © 2015

See weather overviewHow to use our weather pages